Location: ????????
(55.6333°N, 37.7000°E)
Time: 03:45:19
(UTC+00:00)

Cosmos 1452 Rocket - Pass Details

Date: 19 May 2025
Orbit: 764 x 770 km, 74.1° (Epoch: 15 June)

Event Time Altitude Azimuth Distance (km) Brightness Sun altitude
Rises 22:20:07 0° 331° (NNW) 3,244 7.5 -13.5°
Reaches altitude 10° 22:22:30 10° 332° (NNW) 2,315 6.7 -13.4°
Maximum altitude 22:27:46 90° 10° (N) 774 3.5 -13.2°
Drops below altitude 10° 22:33:01 10° 154° (SSE) 2,303 5.5 -13.1°
Enters shadow 22:33:07 - 154° (SSE) 2,346 5.6 -13.0°
